Location: Auberges de Boissy sous Saint-Yon
(48.5478°N, 2.2173°E)
Time: 10:10:43
(UTC+00:00)

Daily predictions for brighter satellites

Satellite Brightness Start Highest point End
(mag) Time Altitude Azimuth Time Altitude Azimuth Time Altitude Azimuth
Cosmos 1741 Rocket 4.1 20:28:15 10° NNW 20:33:37 87° WSW 20:38:57 10° SSE
CARTOSAT-1 3.6 20:30:28 10° SSE 20:34:45 68° ENE 20:39:03 10° N
Cosmos 1606 Rocket 4.4 20:31:26 10° N 20:35:24 34° ENE 20:39:23 10° SE
USA 245 3.3 20:32:54 10° SSE 20:36:36 49° ENE 20:39:37 10° N
Cosmos 2322 Rocket 4.4 20:34:07 10° N 20:37:23 15° NE 20:40:38 10° ENE
Ariane Rocket 3.1 20:33:43 10° SSE 20:38:50 82° WSW 20:43:58 10° NNW
PSLV R/B 4.3 20:37:23 10° N 20:41:33 73° WNW 20:45:43 10° SSW
CZ-4B R/B 1.1 20:42:49 10° N 20:45:43 79° WNW 20:48:36 10° SSW
USA 234 4.4 20:41:52 10° ENE 20:47:59 43° N 20:54:04 10° WNW
ARIANE 5 R/B 3.9 20:44:38 10° ESE 20:48:22 27° ENE 20:52:04 10° N
ATLAS 2AS CENTAUR R/B 4.2 20:42:40 10° NW 20:48:32 29° WSW 20:54:06 10° S
Terra 2.6 20:44:21 10° SE 20:48:44 38° ENE 20:53:07 10° N
SPOT 3 Rocket 3.6 20:45:14 10° SSE 20:50:26 84° ENE 20:55:42 10° NNW
SPOT 5 2.9 20:47:11 10° SSE 20:51:24 53° ENE 20:55:38 10° N
RESURS DK-1 3.3 20:48:16 10° NW 20:52:12 42° WSW 20:56:06 10° S
USA 276 2.4 20:49:42 10° WNW 20:52:44 65° N 20:55:44 10° E
FALCON 9 DEB 3.6 20:50:55 10° WNW 20:54:08 53° NNE 20:57:20 10° E
Cosmos 1455 3.9 20:51:19 10° NNW 20:54:43 31° W 20:58:07 10° SSW
Cosmos 1726 Rocket 4.1 20:53:14 10° N 20:57:23 43° ENE 21:01:15 12° SSE
IRAS Rocket 4.3 20:56:37 10° NNE 21:02:15 85° ESE 21:07:48 10° SSW
Cosmos 1331 Rocket 4.0 20:57:32 10° SSW 21:02:50 82° ESE 21:08:10 10° NNE
Cosmos 2074 Rocket 4.2 20:57:32 10° NNW 21:03:48 75° W 21:10:01 10° S
Cosmos 2082 Rocket 2.6 20:58:39 10° S 21:03:58 42° ESE 21:09:17 10° NE
Cosmos 2360 4.5 21:00:37 10° NNW 21:06:20 68° WSW 21:11:58 10° SSE
Helios 1A Rocket 3.0 21:04:55 11° SSE 21:08:44 72° ENE 21:12:51 10° N
Spot 2 Rocket 3.5 21:04:04 10° SSE 21:09:10 82° ENE 21:14:19 10° NNW
Cosmos 1328 4.0 21:05:22 10° S 21:09:16 54° E 21:13:10 10° NNE
Cosmos 2084 Rocket 3.5 21:06:39 10° NW 21:10:30 60° SW 21:13:53 14° SSE
Cosmos 2360 Rocket 4.4 21:08:26 10° N 21:12:06 17° NE 21:15:45 10° ENE
Nadezhda 1 Rocket 3.9 21:08:33 10° S 21:14:37 78° E 21:20:42 10° NNE
X-37B 2.3 21:22:57 10° WSW 21:24:43 15° SSW 21:25:27 14° S
ERS-1 Rocket 3.0 21:22:06 12° SSE 21:26:45 82° WSW 21:31:50 10° NNW
Cosmos 1892 3.4 21:26:27 18° SSE 21:28:48 36° E 21:32:18 10° NNE
Meteor 1-21 Rocket 4.5 21:25:51 10° SSW 21:31:26 73° WNW 21:37:12 10° N
Cosmos 2228 4.2 21:30:59 10° NNW 21:34:55 39° W 21:38:52 10° SSW
Cosmos 1302 Rocket 3.9 21:29:45 10° SSW 21:34:56 77° ESE 21:40:08 10° NNE
Cosmos 2154 Rocket 4.5 21:32:03 10° NNW 21:38:08 59° W 21:44:12 10° S
Cosmos 192 4.3 21:33:17 10° SSW 21:38:11 87° WNW 21:43:08 10° NNE
Cosmos 1892 Rocket 3.5 21:38:01 12° S 21:42:00 82° E 21:46:23 10° NNE
ASTRO F (AKARI) 4.5 21:40:19 22° SSE 21:42:29 73° ENE 21:45:58 10° N
Cosmos 968 Rocket 3.7 21:37:17 10° NNW 21:42:29 70° WSW 21:46:30 17° S
Cosmos 1697 Rocket 3.9 21:39:53 10° NW 21:44:54 34° WSW 21:49:50 10° S
Cosmos 1980 Rocket 2.5 21:40:11 10° NNW 21:45:50 64° WSW 21:50:07 17° S
SL-16 R/B 2.9 21:43:09 10° NNW 21:48:36 45° NE 21:52:57 15° ESE
Cosmos 2058 Rocket 3.1 21:45:50 10° N 21:50:18 88° ENE 21:53:20 20° S
Cosmos 1408 2.3 21:48:45 20° S 21:51:02 82° E 21:54:30 10° N
Cosmos 1626 Rocket 4.3 21:50:06 22° SE 21:52:18 36° E 21:56:19 10° NNE
SL-8 Rocket 4.0 21:47:13 10° N 21:53:28 76° E 21:58:01 19° SSE
ATLAS 5 CENTAUR R/B 1.4 21:50:51 14° SSW 21:53:53 49° SE 21:57:54 10° NE
CZ-2C R/B 3.9 21:49:40 10° N 21:54:13 73° WNW 21:58:39 10° SSW
Cosmos 2369 4.3 21:48:41 10° NW 21:54:13 50° WSW 21:58:31 16° S
Resurs 01 Rocket 4.4 21:53:24 10° WSW 21:54:39 11° W 21:55:53 10° WNW
USA 267 4.0 21:49:12 10° ENE 21:54:51 30° SE 21:59:31 14° S
SJ 16-02 2.7 21:56:51 10° N 22:00:48 30° ENE 22:03:35 16° ESE
SL-4 R/B 3.8 22:04:44 13° E 22:04:44 13° E 22:05:23 10° E
In-Cosmos 22 Rocket 4.2 21:59:05 18° S 22:03:11 68° E 22:08:34 10° NNE
COSMOS 2406 3.9 21:58:39 10° SW 22:04:19 56° WNW 22:09:59 10° NNE
Cosmos 1825 2.2 22:07:59 29° SSE 22:09:44 61° E 22:13:27 10° NNE
Cosmos 1833 Rocket 4.4 22:04:49 10° WSW 22:09:53 34° NW 22:14:59 10° NNE
Cosmos 1867 4.3 22:06:56 10° NW 22:12:04 42° WSW 22:15:18 21° S
Cosmos 2366 rocket 4.0 22:07:28 10° N 22:13:52 89° E 22:18:15 22° S
Cosmos 1869 3.2 22:12:39 10° N 22:16:35 85° E 22:18:25 30° SSE
Cosmos 2218 Rocket 4.1 22:13:53 10° N 22:20:20 83° W 22:24:43 22° S
Cosmos 2322 Rocket 2.6 22:17:08 10° NNW 22:22:44 57° ENE 22:26:28 21° SE
GP-B 3.3 22:19:16 10° N 22:23:41 69° W 22:26:26 22° SSW
Meteor 1-27 4.2 22:18:25 10° NNW 22:23:59 77° W 22:27:27 24° S
ARIANE 5 R/B 3.7 22:21:46 17° SSW 22:24:41 37° W 22:28:48 10° NNW
Terra 3.3 22:22:57 13° SSW 22:26:33 29° W 22:30:44 10° NNW
SAR-Lupe-4 3.5 22:24:20 10° NNE 22:27:56 87° W 22:29:36 30° SSW
USA 276 2.1 22:25:30 10° WNW 22:28:29 53° SSW 22:28:42 51° S
FALCON 9 DEB 3.7 22:27:17 10° WNW 22:30:18 35° SW 22:30:31 35° SSW
USA 234 3.7 22:23:58 10° ESE 22:30:25 62° NNE 22:36:53 10° NW
BREEZE-M DEB (TANK) 3.5 22:33:06 10° W 22:36:05 87° N 22:46:50 10° E
Cosmos 2278 4.4 22:30:41 10° NW 22:36:05 45° WSW 22:39:18 23° SSW
Cosmos 1633 2.4 22:39:00 44° SSE 22:39:56 70° E 22:43:24 10° NNE
Cosmos 1992 Rocket 4.3 22:37:43 12° SW 22:42:31 66° WNW 22:47:45 10° NNE
Cosmos 2333 Rocket 3.4 22:38:11 10° NNW 22:43:32 37° NE 22:48:05 14° ESE
Okean 1-7 Rocket 4.0 22:40:57 21° SSW 22:43:48 59° WNW 22:48:17 10° N
Cosmos 1758 Rocket 3.6 22:42:24 34° SSE 22:44:08 64° E 22:48:31 10° NNE
ASTEX 1 4.2 22:42:42 10° N 22:47:31 47° WNW 22:51:09 17° SW
Cosmos 2082 Rocket 3.6 22:42:47 10° WSW 22:48:07 39° NW 22:53:26 10° NNE
Cosmos 1606 2.8 22:49:19 10° N 22:53:11 66° E 22:54:21 41° SE
Cosmos-2242 2.9 22:49:18 10° N 22:53:34 89° WSW 22:55:10 38° S
Cosmos 1812 Rocket 3.7 22:49:51 10° NNW 22:54:19 71° W 22:56:09 34° S
Cosmos 2360 Rocket 2.4 22:51:34 10° NNW 22:57:15 67° ENE 23:00:32 26° SE
ADEOS Rocket 3.7 22:53:14 24° SSE 22:58:03 72° ENE 23:05:50 10° NNW
Cosmos 1340 Rocket 3.7 22:58:42 30° ESE 22:59:30 34° E 23:03:06 10° NNE
Gbstr 26 Del rocket 3.3 22:59:00 38° S 23:00:01 45° SE 23:04:43 10° ENE
Cosmos 1602 Rocket 4.0 23:05:35 27° SW 23:07:43 56° WNW 23:12:00 10° N
Cosmos 1821 Rocket 4.0 23:01:50 10° NNW 23:08:03 74° W 23:11:22 29° S
BREEZE-M DEB (TANK) 4.3 23:12:24 21° ESE 23:12:24 21° ESE 23:14:37 10° E
SL-27 R/B 4.3 23:13:18 18° E 23:13:18 18° E 23:15:13 10° NE
Cosmos 44 3.5 23:14:09 38° SSE 23:15:07 44° ESE 23:19:22 10° NE
Cosmos 972 Rocket 4.3 23:10:31 10° NNW 23:15:45 68° ENE 23:18:41 29° SE
Cosmos 1354 Rocket 4.5 23:12:16 10° NNW 23:17:23 49° WSW 23:19:33 31° SSW
Cosmos 2237 4.4 23:14:20 10° NW 23:19:59 60° WSW 23:22:29 32° S
ERS-2 2.8 23:19:15 10° NNE 23:22:36 36° E 23:22:56 35° ESE
ALOS 2 2.6 23:21:36 40° S 23:23:06 75° WSW 23:27:31 10° NNW
Spot 4 4.3 23:21:49 31° SSW 23:23:43 50° W 23:28:24 10° NNW
CENTAUR R/B 3.8 23:22:31 19° SE 23:24:00 21° ESE 23:28:41 10° ENE
NOSS 8 (A) 4.1 23:29:31 70° SE 23:29:36 70° SE 23:32:33 10° NE
COSMOS 2428 3.7 23:24:35 10° NNW 23:30:00 41° NE 23:34:37 14° ESE
Cosmos 1777 Rocket 4.3 23:25:53 10° NNW 23:31:04 57° WSW 23:33:07 34° SSW
H-2A R/B 3.5 23:27:06 10° NNE 23:31:19 79° WNW 23:32:48 39° SSW
Cosmos 2058 2.9 23:29:57 41° SSW 23:31:21 78° WNW 23:35:32 10° N
Nadezhda 3 Rocket 4.1 23:28:02 26° SSW 23:31:36 69° W 23:37:47 10° N
SL-16 R/B 3.1 23:27:30 10° NW 23:32:36 35° WSW 23:34:48 26° SSW
Cosmos 2219 Rocket 2.6 23:27:24 10° NNW 23:33:01 58° ENE 23:36:40 22° SE
Cosmos 1953 Rocket 3.5 23:33:03 43° S 23:34:29 78° E 23:38:54 10° NNE
USA 267 3.2 23:31:49 10° NE 23:38:25 88° SSE 23:44:58 10° WSW
ATLAS 5 CENTAUR R/B 3.5 23:35:16 10° W 23:38:38 27° NNW 23:42:27 10° NNE
SJ 16-02 2.4 23:35:23 10° NW 23:39:21 33° WSW 23:40:31 28° SW
Meteor 2-2 Rocket 4.5 23:35:18 10° NNW 23:41:18 69° W 23:44:11 32° S
SL-4 R/B 1.5 23:40:05 31° WSW 23:41:40 90° NNW 23:45:22 10° ENE
Cosmos 2322 4.0 23:36:32 10° NNW 23:42:11 62° ENE 23:45:44 23° SE
Cosmos 1825 Rocket 3.9 23:41:10 33° SW 23:42:49 56° WNW 23:47:08 10° N
Cosmos 1898 Rocket 4.4 23:38:37 10° NNW 23:43:32 42° ENE 23:47:02 18° ESE
COSMOS 2455 4.4 23:45:05 10° NNW 23:50:30 33° NE 23:55:53 10° ESE
Cosmos 2221 2.5 23:46:30 10° N 23:50:52 89° W 23:52:14 44° S
PSLV R/B 3.9 23:49:17 10° NNE 23:54:01 65° ESE 23:55:36 39° SSE
